Powrót do katalogu

STARLINK-5299

AktywnyŁącznośćVLEO
NORAD 55277·PAYLOAD·🇺🇸 United States

Wystrzelony Jan 19, 2023 z Vandenberg Space Force Base

Loading…

Następne Przeloty (najbliższe 24 godziny)

TLE

ŚwieżeSource: CelesTrak SupGP

Epoka: Sep 15, 2026, 01:55 UTC

1 55277C 23010J   26258.08034722  .00016337  00000+0  13694-2 0  2583
2 55277  69.9990 286.9660 0003463 266.8522 106.9814 14.98313129    15

Śledź STARLINK-5299 w czasie rzeczywistym z AllMySat

Download on the App Store